This demonstration page uses our WeatherBlox Daily Observations layout. Learn more.

Left ArrowRight Arrow

39.92423, -83.80882

Hourly Observations for March 10, 2018

Temp ( °F °C ) Dew Point ( °F °C ) Humidity (%) Winds ( mph kmh ) Pressure ( in mb ) Visibility ( mi km ) Precip ( " mm )
12:56 am 00:56 Clear 23 -5 19 -7.2 85 85 ESE 6 9 30.04 1017 10 16 N/A
1:56 am 01:56 Clear 24 -4.4 19 -7.2 81 81 ESE 5 7 30.04 1017 10 16 N/A
2:56 am 02:56 Clear 23 -5 19 -7.2 85 85 SE 3 6 30.04 1017 10 16 N/A
3:56 am 03:56 Clear 22 -5.6 17 -8.3 82 82 E 5 7 30.04 1017 10 16 N/A
4:56 am 04:56 Clear 23 -5 18 -7.8 81 81 N N/A 30.04 1017 10 16 N/A
5:56 am 05:56 Clear 22 -5.6 17 -8.3 82 82 NE 5 7 30.05 1018 10 16 N/A
6:56 am 06:56 Sunny 20 -6.7 16 -8.9 85 85 N N/A 30.07 1018 10 16 N/A
7:56 am 07:56 Sunny 24 -4.4 20 -6.7 84 84 N N/A 30.08 1019 10 16 N/A
8:56 am 08:56 Sunny 31 -0.6 22 -5.6 69 69 E 6 9 30.08 1019 10 16 N/A
9:56 am 09:56 Sunny 35 1.7 18 -7.8 50 50 E 5 7 30.09 1019 10 16 N/A
10:56 am 10:56 Sunny 37 2.8 18 -7.8 46 46 VRB 3 6 30.09 1019 10 16 N/A
11:56 am 11:56 Sunny 39 3.9 18 -7.8 43 43 VRB 3 6 30.08 1019 10 16 N/A
12:56 pm 12:56 Sunny 40 4.4 20 -6.7 45 45 W 5 7 30.06 1018 10 16 N/A
1:56 pm 13:56 Sunny 43 6.1 20 -6.7 40 40 NNW 8 13 30.04 1017 10 16 N/A
2:56 pm 14:56 Sunny 43 6.1 20 -6.7 40 40 VRB 7 11 30.03 1017 10 16 N/A
3:56 pm 15:56 Sunny 43 6.1 20 -6.7 40 40 N 8 13 30.04 1017 10 16 N/A
4:56 pm 16:56 Sunny 42 5.6 19 -7.2 40 40 NNE 5 7 30.06 1018 10 16 N/A
5:56 pm 17:56 Sunny 40 4.4 19 -7.2 43 43 N 9 15 30.07 1018 10 16 N/A
6:56 pm 18:56 Clear 36 2.2 19 -7.2 50 50 N 8 13 30.09 1019 10 16 N/A
7:56 pm 19:56 Clear 30 -1.1 21 -6.1 69 69 ENE 8 13 30.11 1020 10 16 N/A
8:56 pm 20:56 Clear 27 -2.8 20 -6.7 75 75 NE 9 15 30.11 1020 10 16 N/A
9:56 pm 21:56 Clear 29 -1.7 22 -5.6 75 75 NE 10 17 30.12 1020 10 16 N/A
10:56 pm 22:56 Clear 27 -2.8 21 -6.1 78 78 NE 10 17 30.13 1020 10 16 N/A
11:56 pm 23:56 Clear 25 -3.9 21 -6.1 85 85 NE 10 17 30.14 1021 10 16 N/A

Powered by AerisWeather